Temp
-13 -13 -13 -13 -13 -12 -12 -12 -12 -12 -12 -12 -12 -11 -11 -12 -11 -12 -12 -11 -11 -11 -11 -12 -12 -12 -11 -12 -12 -13 -13 -12 -12 -12 -12 -12 -12 -12 -12 -13 -13 -13 -13 -13
-13 -13 -13 -13 -13 -13 -13 -13 -12 -12 -12 -12 -12 -11 -11 -12 -12 -12 -12 -12 -11 -11 -11 -11 -12 -12 -12 -12 -12 -13 -13 -12 -12 -12 -12 -12 -12 -12 -12 -13 -13 -13 -13 -13
-14 -14 -14 -13 -13 -13 -13 -13 -13 -13 -13 -13 -12 -11 -12 -12 -12 -12 -12 -12 -12 -11 -12 -12 -12 -12 -12 -12 -13 -13 -13 -13 -12 -12 -12 -13 -13 -13 -13 -13 -13 -13 -13 -13
-14 -14 -14 -14 -14 -14 -14 -14 -14 -14 -14 -13 -13 -12 -11 -12 -12 -12 -12 -13 -13 -12 -12 -12 -12 -12 -12 -12 -12 -13 -13 -13 -12 -12 -12 -13 -13 -12 -13 -13 -13 -13 -13 -13
-14 -15 -15 -14 -15 -15 -14 -14 -15 -14 -14 -14 -13 -13 -11 -11 -12 -12 -13 -13 -13 -13 -12 -12 -12 -12 -12 -12 -12 -13 -13 -13 -13 -13 -12 -13 -13 -13 -12 -12 -12 -13 -13 -13
-15 -15 -15 -15 -15 -15 -15 -15 -15 -15 -15 -15 -14 -14 -12 -12 -12 -13 -13 -14 -13 -13 -12 -12 -12 -12 -12 -13 -12 -12 -13 -13 -13 -13 -13 -13 -13 -13 -12 -12 -12 -12 -13 -13
-15 -15 -15 -15 -15 -15 -15 -15 -16 -16 -16 -15 -16 -16 -13 -13 -13 -14 -14 -14 -14 -13 -13 -12 -12 -12 -12 -13 -13 -13 -13 -13 -13 -13 -13 -13 -13 -13 -12 -12 -12 -12 -13 -13
-15 -15 -16 -16 -16 -17 -17 -18 -18 -20 -19 -19 -19 -16 -13 -14 -14 -15 -14 -14 -14 -13 -13 -13 -13 -12 -12 -13 -13 -13 -13 -14 -13 -13 -13 -13 -13 -13 -13 -12 -12 -12 -12 -13
-15 -16 -16 -17 -17 -17 -17 -17 -20 -19 -19 -19 -18 -18 -18 -17 -16 -16 -16 -15 -15 -14 -13 -12 -12 -13 -13 -13 -13 -14 -14 -14 -14 -13 -14 -13 -13 -13 -13 -13 -12 -12 -13 -13
-16 -16 -17 -17 -17 -17 -17 -17 -18 -19 -19 -19 -18 -18 -18 -21 -20 -20 -17 -16 -15 -15 -13 -12 -12 -12 -13 -13 -13 -14 -14 -14 -14 -13 -14 -13 -13 -13 -13 -13 -13 -13 -13 -14
-17 -17 -17 -16 -17 -17 -18 -18 -19 -19 -19 -20 -19 -19 -19 -21 -20 -20 -18 -17 -15 -14 -14 -13 -13 -13 -13 -14 -14 -14 -14 -14 -14 -14 -14 -14 -13 -13 -13 -13 -13 -13 -14 -14
-17 -16 -16 -16 -17 -18 -18 -19 -19 -20 -20 -20 -20 -18 -20 -21 -20 -19 -19 -18 -16 -14 -15 -14 -13 -13 -13 -14 -14 -14 -15 -14 -14 -14 -14 -14 -14 -14 -14 -14 -14 -14 -14 -15
-17 -16 -17 -16 -17 -18 -18 -19 -19 -21 -21 -20 -21 -18 -20 -21 -20 -20 -20 -19 -16 -15 -15 -15 -14 -13 -14 -14 -15 -15 -14 -14 -14 -14 -14 -14 -14 -14 -14 -14 -14 -14 -15 -15
-16 -17 -17 -17 -17 -17 -17 -18 -19 -20 -21 -21 -20 -20 -21 -22 -21 -21 -19 -18 -17 -16 -15 -15 -14 -14 -14 -15 -15 -15 -15 -14 -14 -14 -14 -15 -14 -14 -14 -14 -15 -15 -15 -16
-16 -17 -17 -17 -16 -17 -17 -18 -18 -19 -20 -20 -20 -20 -21 -20 -19 -20 -19 -18 -18 -16 -16 -15 -14 -15 -15 -15 -15 -15 -14 -14 -14 -15 -15 -15 -14 -14 -14 -15 -15 -15 -16 -16
-17 -16 -16 -16 -16 -16 -16 -17 -17 -17 -18 -19 -19 -20 -19 -19 -19 -18 -18 -18 -17 -16 -16 -15 -15 -15 -15 -15 -15 -15 -14 -15 -15 -15 -15 -15 -14 -15 -15 -15 -15 -16 -16 -16
-16 -16 -16 -16 -16 -16 -16 -16 -17 -17 -17 -17 -18 -18 -18 -17 -18 -17 -17 -16 -16 -16 -16 -16 -15 -15 -15 -15 -15 -15 -15 -15 -15 -15 -15 -15 -15 -15 -15 -16 -16 -16 -16 -16
-16 -16 -16 -16 -15 -16 -16 -16 -17 -17 -16 -17 -17 -18 -17 -17 -16 -17 -17 -15 -15 -15 -15 -15 -15 -15 -15 -15 -15 -15 -15 -15 -15 -15 -15 -15 -15 -16 -16 -16 -16 -16 -16 -17
-16 -16 -16 -16 -16 -16 -15 -16 -16 -16 -15 -16 -16 -16 -16 -16 -15 -16 -15 -16 -16 -16 -15 -15 -15 -15 -15 -15 -16 -16 -16 -15 -15 -15 -15 -16 -16 -16 -16 -16 -17 -17 -17 -17
-16 -16 -16 -16 -15 -16 -16 -15 -16 -15 -15 -15 -15 -15 -15 -15 -15 -15 -16 -16 -16 -16 -16 -16 -16 -16 -16 -16 -16 -16 -15 -15 -15 -16 -16 -16 -16 -16 -17 -17 -17 -17 -17 -17
-16 -15 -15 -15 -15 -15 -16 -16 -15 -15 -16 -15 -15 -16 -16 -15 -15 -15 -15 -16 -15 -15 -15 -15 -15 -15 -15 -15 -16 -16 -16 -16 -16 -16 -16 -17 -17 -17 -17 -17 -17 -17 -17 -18
-16 -16 -15 -15 -15 -15 -15 -15 -16 -15 -15 -15 -15 -15 -15 -15 -15 -15 -15 -16 -16 -16 -15 -16 -15 -15 -15 -15 -16 -16 -16 -16 -17 -17 -17 -17 -17 -17 -17 -17 -17 -17 -18 -18
-16 -15 -15 -15 -15 -15 -16 -15 -16 -16 -15 -16 -16 -15 -15 -15 -16 -16 -16 -16 -16 -15 -15 -16 -15 -15 -16 -16 -16 -16 -17 -17 -17 -17 -17 -17 -17 -17 -17 -17 -17 -18 -18 -18
-15 -15 -15 -15 -15 -15 -15 -15 -16 -16 -16 -16 -16 -16 -16 -16 -16 -16 -16 -16 -16 -16 -16 -16 -16 -16 -16 -17 -17 -17 -17 -17 -17 -17 -17 -17 -17 -17 -17 -18 -18 -18 -18 -19
-16 -15 -15 -15 -15 -15 -16 -16 -16 -16 -16 -16 -16 -16 -16 -16 -16 -16 -16 -16 -16 -16 -16 -16 -16 -16 -16 -17 -17 -17 -17 -17 -17 -17 -17 -17 -17 -18 -18 -18 -18 -19 -19 -19
-16 -16 -16 -16 -16 -16 -16 -16 -17 -16 -16 -16 -16 -17 -17 -16 -17 -16 -16 -16 -16 -16 -16 -16 -16 -17 -17 -17 -16 -16 -16 -17 -17 -17 -17 -18 -18 -18 -18 -19 -19 -19 -19 -19
Height
5691 5695 5698 5697 5698 5700 5701 5703 5704 5706 5705 5707 5708 5709 5712 5716 5716 5720 5725 5729 5732 5735 5738 5741 5743 5745 5747 5752 5755 5758 5760 5762 5763 5765 5767 5767 5768 5768 5769 5770 5770 5772 5771 5771
5686 5688 5688 5690 5691 5691 5692 5693 5694 5694 5692 5692 5696 5699 5701 5706 5709 5711 5714 5716 5722 5725 5727 5731 5734 5737 5739 5743 5747 5749 5752 5754 5756 5757 5759 5760 5760 5762 5763 5763 5764 5764 5764 5765
5679 5681 5680 5680 5681 5681 5682 5681 5681 5681 5680 5681 5681 5686 5692 5695 5697 5699 5702 5706 5711 5715 5718 5721 5725 5728 5730 5734 5738 5740 5744 5746 5748 5750 5752 5753 5754 5756 5757 5756 5756 5756 5757 5757
5672 5672 5672 5671 5671 5669 5670 5670 5668 5667 5665 5667 5670 5667 5677 5684 5688 5688 5690 5693 5700 5703 5706 5710 5714 5718 5722 5727 5729 5731 5734 5739 5741 5742 5744 5746 5747 5748 5749 5749 5749 5749 5749 5749
5664 5662 5662 5661 5660 5656 5658 5657 5655 5652 5651 5651 5656 5649 5667 5669 5676 5678 5677 5679 5684 5689 5693 5698 5703 5707 5712 5717 5721 5723 5725 5730 5733 5735 5737 5738 5739 5741 5742 5742 5742 5742 5742 5741
5653 5652 5652 5651 5648 5645 5644 5642 5638 5635 5634 5632 5640 5634 5652 5655 5657 5664 5663 5664 5667 5674 5680 5685 5690 5695 5700 5707 5711 5714 5718 5722 5726 5728 5730 5731 5731 5733 5734 5734 5735 5735 5734 5733
5645 5645 5643 5641 5635 5631 5627 5623 5619 5616 5613 5613 5618 5615 5636 5637 5640 5641 5645 5649 5651 5656 5664 5671 5678 5683 5689 5696 5702 5706 5709 5713 5717 5720 5722 5724 5725 5726 5727 5728 5727 5727 5726 5725
5636 5638 5632 5627 5623 5620 5615 5611 5608 5601 5599 5597 5597 5595 5612 5619 5619 5620 5628 5634 5639 5643 5651 5660 5666 5673 5679 5686 5692 5696 5700 5705 5710 5712 5714 5716 5717 5718 5719 5720 5720 5719 5718 5717
5628 5627 5624 5620 5616 5614 5610 5604 5600 5593 5592 5586 5586 5584 5587 5599 5599 5599 5607 5620 5628 5632 5639 5647 5654 5662 5669 5676 5682 5688 5692 5697 5701 5703 5706 5708 5710 5711 5711 5712 5712 5711 5709 5708
5621 5619 5619 5614 5611 5606 5600 5596 5591 5585 5581 5576 5576 5575 5577 5582 5579 5584 5593 5605 5615 5622 5629 5638 5644 5652 5659 5666 5673 5678 5683 5688 5692 5695 5698 5701 5702 5703 5704 5703 5703 5702 5701 5699
5615 5613 5613 5608 5603 5596 5591 5585 5580 5575 5571 5566 5566 5568 5568 5569 5573 5577 5581 5590 5601 5611 5618 5628 5635 5642 5650 5658 5665 5670 5675 5680 5685 5688 5691 5694 5695 5695 5695 5695 5695 5694 5692 5690
5609 5606 5604 5602 5597 5590 5582 5575 5569 5563 5564 5558 5555 5558 5561 5561 5564 5567 5571 5578 5590 5599 5607 5619 5627 5634 5642 5650 5656 5662 5668 5674 5678 5681 5683 5686 5687 5688 5688 5687 5686 5685 5683 5681
5603 5600 5596 5594 5591 5583 5571 5562 5555 5552 5550 5550 5546 5548 5550 5554 5555 5559 5563 5569 5578 5590 5599 5611 5620 5628 5635 5642 5649 5656 5662 5666 5670 5673 5676 5678 5679 5680 5680 5679 5678 5676 5674 5671
5598 5596 5590 5587 5581 5575 5565 5554 5549 5544 5541 5543 5539 5538 5541 5544 5547 5550 5558 5563 5571 5582 5593 5603 5613 5621 5628 5636 5644 5651 5656 5660 5663 5667 5669 5671 5672 5673 5672 5671 5669 5668 5665 5661
5595 5591 5587 5582 5576 5570 5563 5556 5548 5541 5538 5536 5536 5537 5537 5541 5545 5547 5556 5562 5570 5579 5589 5599 5607 5616 5624 5631 5639 5645 5650 5654 5657 5660 5663 5664 5665 5665 5664 5663 5661 5659 5655 5652
5590 5588 5585 5579 5575 5568 5562 5558 5553 5548 5542 5538 5540 5542 5542 5545 5548 5552 5555 5562 5572 5580 5588 5597 5605 5614 5622 5629 5635 5641 5645 5648 5651 5654 5656 5657 5657 5657 5656 5655 5652 5649 5647 5643
5587 5585 5582 5578 5573 5567 5562 5560 5556 5552 5547 5545 5544 5544 5546 5548 5550 5554 5554 5563 5572 5581 5589 5597 5605 5613 5620 5626 5631 5636 5639 5643 5646 5648 5650 5650 5651 5650 5648 5646 5644 5641 5637 5632
5586 5584 5582 5579 5573 5568 5564 5560 5558 5553 5552 5550 5548 5550 5551 5551 5551 5556 5562 5569 5576 5585 5592 5600 5606 5612 5618 5624 5629 5632 5636 5639 5641 5643 5643 5643 5643 5642 5640 5638 5635 5632 5627 5622
5584 5584 5583 5579 5575 5572 5565 5563 5561 5558 5556 5553 5553 5554 5555 5557 5560 5564 5570 5576 5580 5586 5594 5601 5606 5612 5616 5621 5625 5629 5632 5634 5635 5636 5637 5637 5636 5634 5632 5630 5626 5622 5617 5611
5583 5584 5583 5581 5579 5574 5572 5570 5567 5565 5563 5563 5564 5565 5566 5568 5568 5571 5576 5580 5585 5591 5596 5601 5606 5611 5615 5619 5623 5625 5627 5628 5630 5630 5630 5630 5628 5627 5624 5620 5616 5611 5605 5599
5583 5584 5584 5584 5581 5580 5577 5575 5574 5574 5576 5572 5572 5573 5574 5576 5578 5579 5582 5587 5591 5595 5598 5602 5606 5609 5612 5615 5619 5621 5622 5623 5624 5624 5624 5623 5621 5618 5614 5611 5606 5600 5595 5589
5583 5584 5584 5584 5583 5583 5582 5581 5581 5579 5578 5578 5579 5579 5579 5580 5582 5586 5588 5590 5593 5597 5600 5603 5605 5608 5611 5614 5616 5617 5618 5618 5618 5618 5617 5615 5612 5609 5605 5600 5595 5590 5584 5578
5583 5583 5584 5584 5584 5584 5583 5583 5582 5582 5582 5581 5581 5582 5583 5584 5585 5588 5589 5591 5594 5596 5599 5602 5605 5607 5609 5611 5613 5613 5613 5612 5612 5611 5609 5606 5603 5600 5595 5590 5585 5579 5573 5567
5579 5580 5580 5582 5584 5585 5584 5583 5583 5583 5583 5583 5584 5585 5586 5587 5588 5590 5592 5593 5595 5597 5599 5601 5603 5605 5607 5608 5608 5607 5606 5606 5605 5603 5601 5598 5594 5590 5585 5580 5575 5569 5563 5556
5575 5576 5578 5580 5580 5583 5584 5584 5583 5583 5584 5584 5585 5586 5587 5588 5589 5590 5592 5593 5595 5596 5598 5599 5601 5603 5603 5602 5601 5601 5601 5600 5598 5595 5592 5589 5585 5581 5576 5570 5564 5558 5552 5545
5571 5572 5575 5577 5578 5579 5581 5582 5582 5583 5584 5584 5585 5586 5587 5587 5589 5590 5591 5592 5593 5595 5596 5597 5599 5598 5597 5597 5596 5596 5594 5592 5590 5587 5584 5580 5576 5571 5566 5560 5554 5548 5542 5534
Wind_Speed
24 24 22 25 27 30 32 34 37 39 40 39 40 43 38 38 45 54 53 51 46 42 40 37 38 38 35 33 37 39 36 34 35 36 35 32 33 32 32 34 33 30 30 30
24 25 26 28 30 33 36 41 45 48 46 50 47 47 44 39 41 46 50 54 50 45 43 39 39 38 37 32 33 39 39 37 35 34 34 31 35 31 31 32 33 33 35 32
27 29 31 35 38 40 43 46 47 49 50 52 55 53 46 43 42 45 49 48 48 49 46 43 41 41 41 33 35 39 41 38 36 33 34 30 33 32 29 31 34 36 36 36
32 35 38 41 44 44 48 48 50 53 56 56 54 60 52 47 44 47 48 51 46 47 47 44 42 44 43 37 37 40 41 40 37 34 33 34 32 32 32 31 32 34 36 38
35 36 39 42 43 48 50 52 54 56 58 59 58 62 56 53 45 41 45 51 51 49 49 47 44 45 42 39 40 40 40 40 38 36 33 34 37 33 30 32 34 35 35 37
36 40 42 43 45 50 53 55 57 59 60 64 61 63 55 54 50 42 43 46 53 52 51 50 48 48 46 41 42 42 38 39 39 36 33 34 37 35 33 34 34 35 36 38
37 37 40 43 48 52 56 58 60 61 63 67 62 65 55 56 55 51 48 45 51 52 51 50 49 49 47 41 42 43 39 40 40 38 35 34 35 34 34 33 33 35 36 37
32 32 33 37 38 37 30 28 32 38 45 52 56 67 61 57 57 56 51 49 50 53 52 46 48 48 45 40 42 44 42 41 40 38 37 36 34 33 33 33 34 36 36 38
29 30 32 28 28 32 33 34 30 37 38 42 40 34 52 54 56 57 53 47 46 47 53 50 50 47 44 41 43 45 41 40 41 39 38 38 34 33 33 35 37 38 39 39
26 27 22 24 31 35 40 40 40 40 42 45 45 43 36 31 39 37 49 44 45 45 45 49 48 47 43 41 45 47 43 41 41 40 37 38 36 35 34 36 38 39 40 39
26 24 26 30 30 36 42 47 45 43 44 46 48 41 33 27 27 27 28 38 44 47 47 42 44 42 38 40 43 47 44 42 42 40 36 36 36 36 36 37 38 38 37 36
24 28 28 29 34 38 38 39 41 43 39 44 46 27 29 24 30 28 28 34 39 49 47 42 41 39 37 40 44 46 42 41 41 38 35 37 37 36 36 37 36 34 35 36
22 26 27 24 22 25 31 28 32 31 36 31 39 22 24 22 28 22 22 32 43 47 46 38 37 38 37 42 45 43 40 41 41 36 35 37 37 36 36 34 33 34 36 38
22 20 22 19 17 18 24 21 17 22 31 23 22 13 10 15 25 31 22 32 42 44 42 39 37 38 41 40 41 40 40 41 39 33 36 37 35 35 33 32 33 34 37 38
16 12 13 13 14 17 22 26 18 8 5 5 5 8 12 19 24 16 20 23 32 39 38 37 38 40 39 39 40 40 42 40 34 34 35 34 35 32 31 32 33 35 37 39
11 9 12 15 15 16 16 15 12 7 6 2 8 11 17 17 16 20 25 24 30 36 34 35 36 37 37 35 35 37 34 33 32 32 33 31 31 30 30 31 33 35 38 41
8 10 12 13 14 18 16 3 4 7 3 4 10 14 17 22 19 26 32 32 30 34 31 32 31 31 31 31 32 31 29 28 29 29 29 28 27 28 30 31 34 37 40 43
5 10 13 16 17 21 18 6 7 10 6 4 5 17 14 15 26 21 23 26 31 29 28 29 30 30 29 28 25 24 25 25 25 25 24 24 26 28 30 32 35 38 42 46
4 7 11 15 18 19 23 20 12 10 12 13 23 23 27 26 24 24 27 28 31 34 30 26 26 25 25 24 23 22 21 21 21 21 21 23 26 28 31 34 38 42 44 47
2 3 7 10 13 17 21 23 22 21 22 17 16 18 21 22 26 31 23 22 22 21 21 19 18 18 17 17 17 17 17 17 17 19 22 24 27 30 33 37 40 43 45 47
1 1 4 7 8 10 12 13 15 15 18 16 14 17 17 20 21 22 22 22 19 18 17 15 13 13 13 11 12 14 14 15 18 21 24 26 29 34 36 39 41 43 44 47
8 6 5 3 6 6 4 4 5 7 8 8 5 10 12 11 14 16 12 10 11 10 9 10 11 11 11 12 12 14 16 18 19 22 26 30 32 35 37 38 40 43 46 48
15 10 7 5 6 5 3 3 3 1 4 6 7 7 5 3 2 5 8 7 7 9 11 10 10 10 12 13 15 15 15 18 23 26 28 31 33 34 36 38 42 44 46 47
22 18 15 11 8 6 5 1 3 7 6 5 5 7 7 7 8 8 8 10 11 10 10 10 10 10 11 12 14 16 19 21 24 27 29 30 32 34 37 40 43 45 45 47
23 22 20 17 15 10 5 0 3 6 6 4 3 6 7 7 9 10 11 11 9 9 9 9 10 13 14 13 13 16 20 23 25 27 28 30 34 37 38 41 43 44 46 47
17 19 18 17 14 10 7 3 2 2 2 3 3 2 2 3 5 7 6 6 7 8 10 11 11 10 10 13 17 20 24 25 25 27 31 34 35 38 40 41 43 44 46 51
Wind_Direction
243 246 252 256 262 265 268 269 272 274 277 271 269 269 268 256 250 244 244 248 251 255 252 245 243 243 249 243 234 242 245 247 252 254 257 255 249 253 253 253 254 254 258 261
250 256 260 263 267 270 274 277 276 273 271 270 267 265 267 265 257 251 246 245 247 251 251 248 245 242 248 245 240 241 245 248 250 254 252 253 251 253 254 257 255 254 257 263
261 266 269 271 272 272 273 274 272 273 271 272 271 265 265 265 264 256 248 246 243 247 248 248 247 245 248 245 238 240 244 246 250 254 252 254 254 254 255 256 255 256 259 263
268 271 271 273 275 275 273 275 274 272 270 270 269 268 263 261 261 261 253 246 242 244 247 247 248 248 249 246 238 239 241 244 250 254 253 252 255 253 252 256 259 260 261 264
272 271 272 273 276 275 276 275 274 273 272 268 266 266 259 261 259 259 257 249 242 240 242 246 245 246 249 248 244 240 239 241 248 252 253 254 255 257 257 260 261 263 265 266
273 275 277 279 279 279 277 276 273 272 271 268 267 266 260 264 262 253 250 249 244 239 240 243 241 243 246 243 245 242 240 241 244 251 251 252 252 254 259 262 262 264 266 267
272 276 281 284 281 278 277 273 271 268 265 268 266 263 262 258 258 255 247 242 241 238 234 236 240 239 243 241 243 242 238 240 242 249 249 250 252 254 257 262 262 265 269 272
281 287 285 286 289 293 296 294 291 290 281 279 274 264 260 254 254 255 247 239 240 237 234 230 235 237 239 235 235 237 236 239 241 247 252 252 255 257 258 263 266 268 271 273
285 288 293 290 292 300 298 295 289 287 288 288 297 303 273 261 256 254 249 238 236 240 235 230 231 234 237 233 226 231 233 236 238 244 252 254 255 259 261 264 268 271 272 275
283 287 308 306 297 297 293 291 289 288 288 288 290 292 308 267 262 265 252 238 228 232 231 231 231 232 232 223 222 225 228 233 237 243 250 254 256 259 262 264 268 272 275 278
280 291 310 311 302 299 296 294 289 284 283 284 288 286 293 257 254 253 242 243 223 224 229 225 229 230 225 219 221 224 227 232 236 242 248 254 256 258 260 265 271 276 278 281
291 306 312 305 299 297 300 301 295 281 288 287 288 286 277 258 250 249 232 210 216 216 224 224 229 228 220 215 218 221 226 232 237 242 247 253 257 258 263 268 274 276 280 284
306 314 309 307 306 316 322 305 302 302 294 293 283 285 257 263 244 239 221 214 197 210 215 216 220 221 212 212 214 218 225 233 238 242 248 253 255 259 267 273 275 278 283 286
312 314 312 324 337 347 340 335 304 306 291 290 293 294 267 231 224 226 198 204 200 201 202 203 206 205 204 209 212 220 229 235 240 245 249 253 258 265 269 272 278 282 284 286
317 320 338 351 351 354 356 349 350 316 263 246 296 185 207 197 214 224 186 194 193 184 188 194 199 198 202 204 211 220 228 236 243 248 251 257 262 266 270 276 280 281 284 287
318 323 339 347 350 338 346 351 8 83 111 171 126 182 206 197 175 170 177 172 181 182 183 191 192 196 200 206 216 226 234 243 245 247 253 258 260 268 274 276 279 282 286 292
345 346 358 6 15 20 6 270 41 25 303 116 179 198 180 163 186 191 183 175 180 181 181 183 188 195 205 212 218 226 232 238 243 248 251 258 265 269 273 275 280 288 292 296
33 20 18 23 37 39 44 18 321 340 39 147 198 184 163 140 182 181 175 159 172 171 179 188 194 199 206 214 219 226 232 237 244 249 253 260 266 270 275 283 288 292 295 299
65 36 32 26 38 43 53 54 55 52 74 93 111 115 125 133 148 154 160 169 186 181 186 191 192 197 200 207 215 223 229 235 242 251 257 263 270 278 285 289 291 294 297 300
26 11 29 35 36 41 47 68 76 69 79 100 90 97 111 119 119 126 134 128 134 151 164 163 169 179 188 197 207 218 229 238 250 260 268 277 282 285 289 291 294 297 299 301
216 306 7 54 55 42 41 59 62 75 74 68 80 106 105 107 111 120 129 137 145 155 162 166 175 185 202 228 232 233 244 259 267 274 279 282 286 289 290 294 297 299 301 303
225 239 272 18 41 44 74 44 75 116 121 102 84 89 116 102 116 117 130 137 154 164 181 184 192 206 223 237 249 259 264 268 274 280 284 287 289 291 294 296 298 302 304 305
229 238 261 302 349 342 40 137 143 193 176 155 165 173 170 171 159 182 192 196 190 185 192 206 220 234 247 250 250 255 267 275 281 285 287 289 292 294 297 300 302 304 305 304
229 241 261 278 306 314 310 114 149 188 191 198 219 234 237 230 231 227 233 228 208 213 221 230 235 243 250 255 263 273 281 284 286 289 291 294 296 299 301 303 304 303 303 305
235 239 246 260 281 294 272 163 113 135 145 136 183 205 205 220 224 227 230 228 226 230 237 247 255 255 261 276 285 287 289 292 294 295 298 300 301 302 303 304 303 304 306 310
236 243 243 244 254 263 249 253 169 164 209 241 211 223 216 214 218 226 224 226 234 240 250 259 265 276 293 294 291 294 297 299 300 301 301 301 302 304 303 303 305 308 311 313